When you browse on this site, cookies collect data to enhance your experience and personalize the content and advertising you see.
Visit our Privacy Policy to learn more. By continuing to use the site, you agree to this use of cookies and data.
  • In Sweden
  • List of Countries
  • For 7 days
  • Water Temperature
  • Weather Map
  • Weather Widgets
  • user-avatar
    Login

    Hourly Weather Dronfield

    Today, 6 December, Friday

    Time Temperature Precipitation Wind Pressure Humidity
    00:00 +10°C° 0.2 mm 8 mps 738 mmHg 88%
    01:00 +10°C° 0 mm 8 mps 737 mmHg 88%
    02:00 +10°C° 0 mm 7 mps 737 mmHg 89%
    03:00 +10°C° 0 mm 6 mps 736 mmHg 90%
    04:00 +10°C° 0 mm 7 mps 736 mmHg 90%
    05:00 +10°C° 0 mm 7 mps 736 mmHg 90%
    06:00 +10°C° 0 mm 7 mps 736 mmHg 90%
    07:00 +10°C° 0.1 mm 7 mps 735 mmHg 90%
    08:00 +10°C° 0.1 mm 7 mps 735 mmHg 90%
    09:00 +10°C° 0.1 mm 7 mps 734 mmHg 89%
    10:00 +10°C° 0.1 mm 7 mps 734 mmHg 84%
    11:00 +10°C° 0.1 mm 7 mps 733 mmHg 80%
    12:00 +10°C° 0.1 mm 7 mps 733 mmHg 75%
    13:00 +10°C° 1.1 mm 7 mps 733 mmHg 79%
    14:00 +9°C° 1.1 mm 7 mps 732 mmHg 83%
    15:00 +8°C° 1.1 mm 6 mps 732 mmHg 87%
    16:00 +7°C° 0.5 mm 6 mps 733 mmHg 85%
    17:00 +6°C° 0.5 mm 7 mps 734 mmHg 83%
    18:00 +6°C° 0.5 mm 7 mps 735 mmHg 81%
    19:00 +6°C° 0 mm 7 mps 735 mmHg 82%
    20:00 +7°C° 0 mm 6 mps 736 mmHg 83%
    21:00 +7°C° 0 mm 6 mps 737 mmHg 84%
    22:00 +7°C° 0 mm 6 mps 737 mmHg 85%
    23:00 +7°C° 0 mm 6 mps 738 mmHg 85%

    Tomorrow, 7 December, Saturday

    Time Temperature Precipitation Wind Pressure Humidity
    00:00 +7°C° 0 mm 6 mps 738 mmHg 85%
    01:00 +7°C° 0 mm 6 mps 739 mmHg 85%
    02:00 +5°C° 0 mm 6 mps 739 mmHg 85%
    03:00 +6°C° 0 mm 5 mps 740 mmHg 85%
    04:00 +6°C° 0 mm 5 mps 740 mmHg 86%
    05:00 +6°C° 0 mm 5 mps 740 mmHg 87%
    06:00 +6°C° 0 mm 4 mps 741 mmHg 88%
    07:00 +6°C° 0 mm 5 mps 741 mmHg 87%
    08:00 +6°C° 0 mm 5 mps 741 mmHg 87%
    09:00 +6°C° 0 mm 5 mps 742 mmHg 86%
    10:00 +6°C° 0 mm 5 mps 742 mmHg 85%
    11:00 +7°C° 0 mm 5 mps 742 mmHg 83%
    12:00 +7°C° 0 mm 5 mps 742 mmHg 82%
    13:00 +7°C° 0 mm 5 mps 741 mmHg 83%
    14:00 +7°C° 0 mm 5 mps 741 mmHg 84%
    15:00 +7°C° 0 mm 4 mps 740 mmHg 85%
    16:00 +7°C° 0 mm 5 mps 740 mmHg 86%
    17:00 +7°C° 0 mm 5 mps 740 mmHg 87%
    18:00 +7°C° 0 mm 6 mps 739 mmHg 89%
    19:00 +6°C° 0 mm 7 mps 738 mmHg 88%
    20:00 +6°C° 0 mm 7 mps 737 mmHg 88%
    21:00 +6°C° 0 mm 8 mps 736 mmHg 88%
    22:00 +6°C° 1.1 mm 9 mps 735 mmHg 87%
    23:00 +6°C° 1.1 mm 10 mps 733 mmHg 87%

    Day after tomorrow, 8 December, Sunday

    Time Temperature Precipitation Wind Pressure Humidity
    00:00 +7°C° 1.1 mm 11 mps 732 mmHg 87%
    01:00 +8°C° 0.7 mm 11 mps 731 mmHg 87%
    02:00 +9°C° 0.7 mm 10 mps 730 mmHg 86%
    03:00 +11°C° 0.7 mm 10 mps 729 mmHg 86%
    04:00 +8°C° 0 mm 9 mps 730 mmHg 82%
    05:00 +7°C° 0 mm 9 mps 730 mmHg 78%
    06:00 +5°C° 0 mm 8 mps 731 mmHg 73%
    07:00 +5°C° 0 mm 8 mps 731 mmHg 74%
    08:00 +4°C° 0 mm 8 mps 731 mmHg 75%
    09:00 +4°C° 0 mm 8 mps 731 mmHg 76%
    10:00 +4°C° 0 mm 8 mps 731 mmHg 73%
    11:00 +5°C° 0 mm 8 mps 731 mmHg 70%
    12:00 +5°C° 0 mm 9 mps 731 mmHg 66%
    13:00 +5°C° 0.3 mm 9 mps 730 mmHg 68%
    14:00 +4°C° 0.3 mm 8 mps 730 mmHg 69%
    15:00 +4°C° 0.3 mm 8 mps 729 mmHg 70%
    16:00 +4°C° 0 mm 8 mps 729 mmHg 71%
    17:00 +2°C° 0 mm 8 mps 728 mmHg 72%
    18:00 +2°C° 0 mm 8 mps 728 mmHg 73%
    19:00 +2°C° 0.5 mm 9 mps 727 mmHg 76%
    20:00 +2°C° 0.5 mm 9 mps 726 mmHg 79%
    21:00 +3°C° 0.5 mm 9 mps 724 mmHg 81%
    22:00 +2°C° 0.9 mm 10 mps 723 mmHg 84%
    23:00 +2°C° 0.9 mm 10 mps 722 mmHg 87%

    9 December, Monday

    Time Temperature Precipitation Wind Pressure Humidity
    00:00 +2°C° 0.9 mm 10 mps 721 mmHg 89%
    01:00 +2°C° 0.8 mm 10 mps 722 mmHg 81%
    02:00 +3°C° 0.8 mm 10 mps 722 mmHg 74%
    03:00 +3°C° 0.8 mm 11 mps 723 mmHg 66%
    04:00 +3°C° 0.5 mm 10 mps 724 mmHg 73%
    05:00 +2°C° 0.5 mm 10 mps 724 mmHg 80%
    06:00 +2°C° 0.5 mm 10 mps 724 mmHg 87%
    07:00 +2°C° 0.8 mm 9 mps 726 mmHg 84%
    08:00 +2°C° 0.8 mm 8 mps 727 mmHg 81%
    09:00 +2°C° 0.8 mm 8 mps 729 mmHg 78%
    10:00 +4°C° 0 mm 8 mps 731 mmHg 75%
    11:00 +4°C° 0 mm 8 mps 733 mmHg 72%
    12:00 +4°C° 0 mm 8 mps 736 mmHg 69%
    13:00 +4°C° 0 mm 7 mps 738 mmHg 69%
    14:00 +3°C° 0 mm 6 mps 739 mmHg 69%
    15:00 +3°C° 0 mm 6 mps 741 mmHg 69%
    16:00 +2°C° 0 mm 5 mps 742 mmHg 70%
    17:00 +2°C° 0 mm 5 mps 744 mmHg 71%
    18:00 +1°C° 0 mm 4 mps 745 mmHg 73%
    19:00 +1°C° 0 mm 4 mps 746 mmHg 73%
    20:00 +1°C° 0 mm 3 mps 747 mmHg 74%
    21:00 +1°C° 0 mm 3 mps 748 mmHg 74%
    22:00 +2°C° 0 mm 2 mps 748 mmHg 74%
    23:00 +1°C° 0 mm 2 mps 748 mmHg 73%

    10 December, Tuesday

    Time Temperature Precipitation Wind Pressure Humidity
    00:00 +1°C° 0 mm 2 mps 749 mmHg 73%
    01:00 +1°C° 0 mm 2 mps 748 mmHg 72%
    02:00 +1°C° 0 mm 2 mps 748 mmHg 72%
    03:00 +1°C° 0 mm 2 mps 748 mmHg 71%
    04:00 +1°C° 0 mm 2 mps 748 mmHg 73%
    05:00 0°C° 0 mm 3 mps 747 mmHg 74%
    06:00 -1°C° 0 mm 4 mps 746 mmHg 76%
    07:00 0°C° 0 mm 5 mps 745 mmHg 77%
    08:00 +1°C° 0 mm 6 mps 744 mmHg 79%
    09:00 0°C° 0 mm 7 mps 743 mmHg 80%
    10:00 +2°C° 0.9 mm 7 mps 741 mmHg 83%
    11:00 +2°C° 0.9 mm 8 mps 740 mmHg 86%
    12:00 +2°C° 0.9 mm 9 mps 738 mmHg 90%
    13:00 +3°C° 0.8 mm 10 mps 736 mmHg 89%
    14:00 +4°C° 0.8 mm 11 mps 734 mmHg 89%
    15:00 +6°C° 0.8 mm 11 mps 732 mmHg 89%
    16:00 +6°C° 1.4 mm 11 mps 732 mmHg 87%
    17:00 +6°C° 1.4 mm 11 mps 732 mmHg 85%
    18:00 +5°C° 1.4 mm 10 mps 732 mmHg 83%
    19:00 +3°C° 0.1 mm 9 mps 732 mmHg 79%
    20:00 +3°C° 0.1 mm 9 mps 733 mmHg 76%
    21:00 +2°C° 0.1 mm 8 mps 734 mmHg 72%
    22:00 +3°C° 0 mm 7 mps 734 mmHg 73%
    23:00 +2°C° 0 mm 7 mps 735 mmHg 75%

    11 December, Wednesday

    Time Temperature Precipitation Wind Pressure Humidity
    00:00 +2°C° 0 mm 7 mps 735 mmHg 76%
    01:00 +2°C° 0 mm 7 mps 735 mmHg 76%
    02:00 +2°C° 0 mm 7 mps 735 mmHg 76%
    03:00 +2°C° 0 mm 7 mps 735 mmHg 76%
    04:00 +1°C° 0 mm 6 mps 735 mmHg 77%
    05:00 +1°C° 0 mm 6 mps 734 mmHg 77%
    06:00 +1°C° 0 mm 6 mps 734 mmHg 77%
    07:00 0°C° 0.4 mm 7 mps 733 mmHg 81%
    08:00 0°C° 0.4 mm 8 mps 732 mmHg 85%
    09:00 0°C° 0.4 mm 9 mps 731 mmHg 88%
    10:00 0°C° 0.8 mm 8 mps 730 mmHg 90%
    11:00 -1°C° 0.8 mm 8 mps 730 mmHg 91%
    12:00 -1°C° 0.8 mm 7 mps 729 mmHg 92%
    13:00 -1°C° 0.2 mm 7 mps 729 mmHg 86%
    14:00 0°C° 0.2 mm 8 mps 728 mmHg 79%
    15:00 0°C° 0.2 mm 8 mps 728 mmHg 72%
    16:00 0°C° 0.1 mm 7 mps 728 mmHg 74%
    17:00 -1°C° 0.1 mm 7 mps 728 mmHg 75%
    18:00 -1°C° 0.1 mm 7 mps 728 mmHg 76%
    19:00 -1°C° 0 mm 7 mps 727 mmHg 75%
    20:00 -2°C° 0 mm 6 mps 727 mmHg 75%
    21:00 -2°C° 0 mm 6 mps 727 mmHg 74%
    22:00 -2°C° 0 mm 6 mps 727 mmHg 76%
    23:00 -2°C° 0 mm 6 mps 726 mmHg 78%
    Show more